Temp
9 9 9 9 9 9 9 9 10 9 10 11 11 12 12 13 13 13 13 13 13 13 13 13 13 12 12 12 11 11 11 10 10 9 9 9 8 8 8 7 7 7 7 7
8 9 8 9 9 9 9 9 9 10 10 10 11 12 12 12 13 13 13 13 13 13 13 13 13 12 12 11 11 11 11 10 10 9 9 8 8 8 7 7 7 7 7 7
8 8 8 8 9 9 9 9 9 9 10 10 11 12 12 12 13 13 13 13 13 13 13 13 12 12 11 11 11 10 10 10 9 9 8 8 8 8 7 7 7 7 7 6
8 8 8 8 8 9 9 9 9 9 10 10 11 11 12 12 12 13 13 12 12 12 12 12 12 12 11 11 10 10 10 9 9 8 8 8 8 8 7 7 7 6 6 6
8 8 8 8 9 9 9 9 9 9 9 10 10 11 12 12 12 12 12 12 12 12 12 12 11 11 11 10 10 10 9 9 8 8 8 8 8 8 7 7 7 6 6 6
8 8 8 9 9 9 9 9 9 9 9 9 10 10 12 12 12 12 12 12 12 12 12 11 11 11 10 10 9 9 9 8 8 8 8 8 8 8 8 7 7 6 6 6
8 8 8 8 8 9 9 9 9 8 7 7 10 10 13 13 12 12 12 12 11 12 12 11 11 11 10 10 10 9 9 8 8 8 8 8 8 8 8 7 7 7 6 6
8 9 9 9 9 9 9 9 9 9 5 8 9 11 13 12 12 12 12 12 12 12 12 11 11 11 10 10 10 10 9 9 9 9 8 8 8 8 8 7 7 7 6 6
9 9 9 9 9 8 8 9 9 9 7 7 11 12 13 13 13 12 12 12 12 12 11 11 11 11 10 10 10 9 9 9 8 8 8 8 8 8 8 8 7 7 6 6
9 9 9 8 8 8 8 9 9 9 6 8 9 11 14 14 13 12 12 12 12 12 11 11 11 11 11 10 10 10 9 9 9 8 8 8 8 8 8 8 7 7 7 6
8 8 8 8 8 9 9 8 9 9 9 6 6 12 14 14 13 13 12 12 12 12 12 11 11 11 11 10 10 10 10 9 8 8 8 8 8 8 8 7 7 7 6 6
8 8 8 9 9 9 9 9 9 10 9 8 8 13 14 14 13 13 12 12 12 12 11 11 11 11 11 10 10 10 9 9 9 8 8 8 8 7 7 7 7 7 6 6
9 7 8 8 8 9 9 10 9 10 9 10 10 14 14 13 13 13 12 12 12 12 12 11 11 11 10 10 10 10 9 9 9 8 8 7 7 7 7 7 7 6 6 6
7 8 9 10 11 11 10 11 10 9 9 11 12 14 14 14 13 13 12 12 12 11 11 11 11 11 10 10 10 9 9 9 8 8 7 7 7 6 7 6 6 6 6 5
7 7 8 9 10 10 10 10 11 10 11 11 13 13 14 13 12 12 12 12 12 12 11 11 11 10 10 10 10 10 9 9 9 8 7 7 7 7 7 6 6 6 5 5
7 7 8 8 9 9 9 9 10 9 10 11 12 13 14 13 12 12 12 12 12 12 11 11 10 10 10 9 9 9 9 9 8 8 8 7 7 7 7 7 6 6 5 5
8 7 7 7 9 8 7 11 10 11 11 12 11 15 14 13 12 12 12 12 12 12 11 11 10 10 9 9 9 10 9 9 8 8 7 7 7 6 7 6 6 6 5 5
7 8 7 7 7 3 10 11 12 12 12 12 13 14 14 13 12 12 12 13 12 12 11 10 10 10 9 8 9 9 9 8 8 7 7 6 7 6 6 6 6 5 5 4
7 7 6 6 7 8 9 10 12 12 13 13 14 14 13 13 12 13 13 13 12 11 10 10 10 9 9 8 8 8 7 7 7 7 7 6 6 6 6 6 6 5 4 4
7 6 6 5 6 3 10 11 12 11 11 14 13 14 13 13 12 14 12 12 12 11 10 10 9 9 8 8 8 7 7 6 6 6 6 6 6 6 5 5 5 5 4 4
6 5 5 5 6 8 9 11 11 10 14 14 14 13 13 13 13 12 12 11 11 11 10 10 9 8 8 7 7 6 6 5 6 6 6 6 6 5 5 5 5 5 4 4
7 6 6 5 5 5 8 9 10 13 13 12 12 12 12 12 12 11 11 10 10 10 10 9 9 8 7 7 6 6 6 5 5 6 5 5 5 5 4 4 4 4 4 3
6 7 8 8 9 9 11 11 11 11 11 11 10 10 11 11 11 10 10 9 9 9 8 8 8 7 6 6 6 5 5 4 5 5 5 4 4 4 4 4 4 3 3 3
6 6 7 8 9 9 9 10 10 11 11 11 10 10 10 10 10 9 9 8 8 8 7 7 7 6 6 5 5 4 4 5 5 5 5 4 4 4 3 3 3 3 3 2
6 6 7 7 7 8 9 9 9 9 9 10 10 9 9 9 9 9 8 7 7 7 6 6 6 5 5 4 4 4 4 4 4 4 4 4 3 3 3 2 2 2 1 1
5 6 6 8 8 8 8 8 8 8 8 8 8 8 8 8 8 8 7 7 6 6 6 5 5 5 4 4 4 3 3 4 4 4 3 3 3 2 2 2 1 1 1 0
Height
3196 3197 3198 3198 3198 3198 3198 3198 3197 3196 3195 3194 3193 3192 3192 3191 3191 3191 3191 3191 3191 3192 3192 3192 3192 3192 3192 3192 3191 3191 3191 3191 3191 3191 3191 3190 3188 3187 3185 3183 3181 3180 3178 3176
3197 3196 3196 3197 3197 3197 3197 3196 3196 3195 3194 3194 3192 3192 3192 3191 3191 3191 3191 3191 3190 3191 3191 3192 3192 3191 3191 3191 3190 3190 3190 3190 3189 3189 3188 3188 3186 3185 3182 3179 3177 3175 3173 3172
3194 3195 3195 3196 3196 3196 3196 3195 3194 3195 3194 3192 3192 3192 3192 3191 3191 3190 3190 3190 3190 3190 3190 3191 3191 3191 3190 3190 3189 3189 3188 3188 3188 3188 3187 3185 3183 3182 3178 3175 3172 3170 3168 3166
3192 3192 3194 3194 3194 3195 3194 3194 3194 3193 3193 3192 3192 3193 3191 3191 3190 3190 3189 3189 3189 3189 3190 3190 3191 3190 3189 3189 3188 3188 3187 3187 3186 3185 3184 3181 3179 3177 3173 3170 3167 3165 3162 3162
3191 3190 3191 3192 3193 3193 3194 3193 3193 3192 3192 3192 3192 3192 3190 3190 3189 3189 3189 3189 3189 3189 3189 3189 3189 3189 3189 3188 3188 3187 3187 3186 3184 3182 3179 3177 3174 3171 3168 3165 3163 3160 3158 3156
3187 3188 3189 3190 3191 3191 3192 3192 3192 3192 3192 3192 3191 3192 3188 3189 3190 3189 3189 3189 3189 3189 3188 3188 3188 3188 3187 3187 3186 3186 3185 3183 3181 3178 3175 3172 3169 3166 3164 3161 3159 3157 3154 3152
3184 3186 3187 3188 3189 3190 3190 3191 3191 3193 3193 3190 3189 3190 3186 3188 3189 3189 3189 3188 3188 3188 3187 3187 3186 3186 3186 3185 3184 3183 3181 3179 3177 3174 3171 3168 3165 3162 3160 3157 3155 3153 3151 3149
3181 3184 3183 3184 3186 3187 3188 3189 3189 3189 3192 3187 3187 3184 3183 3184 3186 3187 3187 3187 3187 3187 3186 3186 3185 3185 3184 3182 3181 3179 3177 3176 3173 3170 3167 3164 3161 3157 3155 3152 3151 3149 3146 3144
3178 3179 3179 3180 3182 3186 3184 3186 3187 3187 3187 3187 3182 3180 3180 3181 3183 3185 3185 3185 3185 3185 3185 3184 3184 3183 3182 3180 3178 3176 3174 3172 3169 3166 3163 3159 3156 3153 3150 3148 3146 3143 3141 3138
3176 3177 3176 3178 3179 3181 3182 3184 3185 3185 3187 3185 3179 3177 3175 3176 3179 3181 3182 3183 3183 3183 3183 3182 3182 3181 3179 3177 3175 3173 3170 3168 3165 3162 3159 3155 3152 3149 3146 3143 3141 3138 3136 3134
3172 3175 3175 3176 3175 3177 3179 3179 3181 3182 3181 3180 3181 3172 3171 3174 3177 3179 3180 3180 3180 3180 3180 3180 3179 3178 3176 3174 3173 3170 3167 3165 3162 3159 3155 3152 3148 3144 3141 3139 3136 3133 3131 3128
3168 3171 3171 3173 3172 3173 3173 3175 3177 3177 3177 3176 3175 3171 3170 3172 3174 3176 3177 3177 3177 3177 3176 3176 3176 3174 3173 3171 3169 3166 3163 3160 3158 3154 3151 3147 3143 3139 3137 3134 3131 3128 3125 3122
3163 3165 3168 3169 3171 3168 3167 3169 3171 3173 3173 3171 3172 3168 3168 3169 3171 3172 3173 3174 3174 3173 3173 3172 3172 3171 3170 3168 3165 3162 3159 3156 3153 3150 3146 3142 3138 3135 3132 3129 3125 3121 3118 3115
3159 3159 3160 3160 3160 3161 3160 3162 3165 3168 3167 3164 3163 3164 3166 3167 3168 3169 3169 3169 3169 3169 3168 3169 3168 3167 3166 3164 3161 3158 3155 3153 3149 3146 3141 3137 3133 3129 3126 3122 3119 3115 3111 3109
3155 3154 3156 3158 3158 3158 3158 3158 3159 3158 3161 3160 3160 3160 3163 3165 3166 3165 3164 3164 3164 3164 3164 3164 3163 3162 3161 3159 3157 3154 3150 3147 3144 3140 3136 3131 3127 3123 3119 3115 3111 3107 3104 3101
3149 3149 3151 3152 3153 3154 3153 3153 3153 3154 3154 3154 3155 3153 3157 3160 3160 3160 3159 3158 3157 3158 3158 3158 3157 3156 3155 3154 3152 3148 3144 3141 3138 3134 3129 3124 3119 3115 3111 3107 3103 3099 3095 3092
3144 3146 3147 3146 3147 3147 3144 3141 3145 3146 3146 3148 3148 3149 3151 3152 3154 3154 3152 3151 3152 3152 3152 3152 3152 3150 3149 3147 3146 3143 3139 3135 3131 3126 3122 3117 3111 3107 3103 3099 3095 3091 3087 3082
3137 3140 3143 3142 3143 3140 3132 3134 3137 3137 3140 3141 3141 3142 3143 3146 3145 3145 3143 3145 3145 3146 3146 3146 3146 3144 3143 3141 3138 3137 3133 3127 3123 3118 3113 3109 3103 3098 3094 3089 3086 3082 3078 3074
3130 3134 3135 3136 3133 3128 3125 3127 3129 3130 3130 3133 3132 3134 3136 3137 3136 3137 3136 3139 3140 3140 3140 3140 3139 3138 3137 3135 3131 3129 3125 3119 3115 3110 3105 3100 3094 3089 3084 3080 3076 3073 3068 3064
3120 3124 3128 3125 3125 3118 3115 3120 3125 3125 3115 3128 3125 3129 3130 3130 3128 3130 3132 3133 3133 3134 3134 3133 3132 3132 3131 3128 3124 3121 3117 3112 3107 3102 3096 3091 3084 3079 3075 3071 3067 3062 3057 3053
3108 3113 3112 3116 3115 3106 3109 3113 3117 3120 3113 3119 3120 3121 3121 3120 3123 3125 3125 3125 3127 3128 3128 3127 3126 3125 3124 3121 3116 3113 3109 3103 3097 3092 3086 3081 3076 3071 3066 3062 3058 3052 3048 3043
3092 3100 3102 3109 3110 3098 3101 3106 3109 3111 3110 3112 3114 3115 3114 3115 3116 3117 3119 3120 3121 3122 3121 3121 3119 3118 3116 3113 3108 3104 3100 3092 3087 3082 3077 3073 3068 3063 3058 3052 3049 3045 3039 3033
3083 3081 3087 3089 3079 3085 3091 3095 3102 3103 3104 3105 3106 3107 3108 3110 3111 3112 3113 3114 3114 3114 3114 3113 3112 3110 3108 3104 3099 3094 3089 3082 3077 3072 3068 3062 3058 3053 3048 3043 3039 3034 3029 3022
3068 3073 3077 3081 3076 3080 3085 3091 3095 3097 3099 3098 3100 3101 3103 3104 3105 3105 3105 3106 3106 3106 3105 3104 3102 3100 3099 3095 3091 3085 3078 3071 3067 3063 3058 3053 3048 3044 3040 3036 3030 3023 3019 3012
3059 3065 3062 3063 3067 3073 3078 3084 3089 3090 3091 3092 3093 3094 3096 3096 3097 3098 3097 3097 3097 3097 3096 3094 3092 3090 3088 3083 3080 3075 3067 3061 3058 3053 3049 3044 3039 3034 3030 3024 3019 3014 3009 3002
3042 3045 3050 3047 3061 3066 3072 3079 3082 3082 3082 3084 3085 3085 3088 3088 3089 3088 3088 3088 3088 3087 3085 3083 3081 3079 3076 3072 3068 3063 3056 3052 3048 3044 3039 3035 3030 3026 3021 3016 3011 3006 2999 2993
Wind_Speed
8 8 6 7 6 6 7 7 8 8 9 7 4 2 1 1 4 3 2 2 3 4 4 4 3 3 4 5 6 7 7 8 8 7 7 6 8 11 13 15 17 18 19 19
9 8 9 8 7 8 7 7 7 6 6 8 4 2 2 1 1 2 1 1 3 3 3 2 1 1 2 3 4 5 6 7 7 6 6 7 10 15 18 21 23 24 23 22
11 7 11 10 9 7 6 7 6 6 8 6 2 4 2 3 2 3 3 2 2 2 2 2 2 3 4 4 4 4 5 6 6 7 9 13 17 20 23 25 26 27 27 26
10 14 10 10 8 7 6 5 5 8 5 2 4 3 6 3 2 2 3 3 2 1 0 1 2 3 3 4 4 4 4 5 7 11 15 19 22 25 26 25 24 24 26 27
7 9 13 11 9 7 5 5 7 5 2 2 4 3 8 5 3 4 4 4 4 3 3 1 1 1 2 4 6 6 6 9 12 17 21 24 25 23 21 20 22 23 24 24
16 9 10 11 9 8 7 5 4 2 4 2 5 2 10 7 6 8 8 7 5 2 0 0 1 3 4 4 5 7 9 12 17 20 23 23 21 22 20 20 21 22 23 23
18 17 14 12 11 10 8 4 1 1 1 5 7 5 5 12 10 9 7 6 4 2 1 1 3 4 6 7 8 9 11 14 19 20 21 23 23 21 20 19 20 22 23 24
18 7 20 15 16 8 11 8 3 4 4 3 7 7 6 13 12 7 6 3 3 3 3 3 4 5 7 9 10 12 13 14 18 20 23 24 25 24 21 20 21 21 23 25
9 11 10 16 14 14 10 9 8 3 2 3 5 7 9 14 14 10 7 3 1 2 3 4 6 7 8 10 12 13 14 15 18 20 22 24 25 25 24 23 21 22 24 26
8 6 11 17 15 17 12 9 6 7 4 4 4 7 9 16 15 11 8 4 2 1 3 5 6 8 11 13 14 16 17 17 18 20 22 22 23 24 23 22 21 22 24 25
24 12 6 16 15 17 19 17 10 6 4 5 1 4 7 11 11 9 8 6 5 5 5 7 8 9 12 15 17 19 19 18 18 20 22 23 22 22 22 22 22 23 24 24
30 11 11 12 16 17 20 21 17 7 7 7 3 4 9 12 12 10 9 9 9 9 9 10 11 12 14 18 19 22 23 23 23 23 23 24 23 22 22 23 24 25 24 24
29 16 6 6 17 24 25 27 25 22 10 10 5 3 7 12 11 8 9 10 12 14 14 14 15 15 17 18 21 23 25 26 27 26 26 26 25 23 22 24 25 25 25 25
17 26 17 14 3 9 26 29 29 27 16 18 24 11 8 12 12 13 13 14 16 16 17 17 17 17 19 20 22 25 27 29 30 29 29 29 29 28 27 27 26 27 28 27
25 24 29 29 20 14 13 15 28 34 33 22 24 25 18 17 16 18 20 22 21 19 19 19 19 18 21 22 24 28 30 33 34 34 35 36 35 35 36 36 34 32 31 30
36 25 25 27 27 32 29 21 20 26 35 36 35 30 21 21 25 25 25 25 23 22 20 19 18 20 23 25 27 31 33 37 38 38 42 43 39 35 35 33 34 35 34 34
33 35 29 22 24 26 26 41 37 31 30 29 36 22 22 22 19 17 22 24 21 20 20 20 18 21 25 27 29 33 37 40 42 44 47 46 44 38 37 37 34 33 35 38
29 32 31 16 16 7 23 31 27 33 34 36 36 28 25 22 23 25 29 26 24 21 21 22 21 22 25 28 32 34 39 42 44 48 52 49 46 41 39 39 38 37 38 40
32 29 24 18 21 27 18 21 27 27 31 27 28 26 23 21 22 24 28 24 22 21 23 21 22 24 25 30 34 38 41 43 46 51 53 52 44 42 40 39 38 38 39 40
36 35 35 17 10 10 17 23 33 26 37 17 25 22 21 23 29 26 23 25 25 24 22 21 22 23 27 32 37 40 43 46 51 52 53 49 44 41 40 38 36 37 38 41
41 40 43 41 22 22 23 9 15 23 32 18 21 19 21 27 26 24 25 24 24 25 26 25 26 27 31 35 39 42 46 50 53 55 50 44 41 39 36 36 37 39 40 42
42 42 45 40 29 31 23 28 33 35 32 28 23 25 22 17 21 21 19 19 21 24 28 29 32 34 35 37 41 45 49 53 56 53 45 40 36 35 37 38 38 39 41 42
43 49 43 39 48 39 23 12 22 21 24 27 22 15 15 15 19 21 21 20 22 26 29 31 34 35 36 39 44 49 51 57 54 46 41 38 37 37 38 40 39 40 40 42
54 46 49 43 52 47 40 34 30 29 22 22 21 19 20 21 24 25 24 23 26 27 29 33 36 38 39 42 47 50 56 56 48 44 42 41 41 40 38 39 40 41 42 44
50 48 57 57 54 34 26 30 29 30 29 28 27 28 26 28 28 30 30 28 27 30 32 36 40 40 42 47 50 52 58 50 45 43 41 41 40 40 40 40 40 42 42 43
52 52 51 57 50 48 46 42 40 37 34 30 30 28 28 31 31 35 33 31 32 34 37 39 40 44 47 50 54 57 53 48 44 41 39 39 40 41 42 42 41 41 42 42
Wind_Direction
225 226 232 226 255 263 257 266 281 292 303 314 301 313 348 319 207 194 193 226 239 242 225 236 249 276 287 281 276 276 281 292 289 291 297 311 323 322 317 311 304 299 298 298
226 230 231 238 257 263 261 274 293 297 295 306 290 173 79 62 173 206 216 218 233 252 261 263 274 307 306 300 293 292 292 289 285 285 299 317 324 323 316 306 298 294 292 292
229 239 233 240 259 258 269 286 293 300 299 290 258 176 132 129 140 112 103 118 156 199 211 255 297 310 310 305 299 290 283 279 285 297 309 314 317 317 314 303 298 294 290 287
239 233 240 243 252 261 281 275 284 305 303 232 183 187 173 149 124 123 113 105 110 124 139 342 322 302 294 298 295 285 278 278 289 298 302 306 308 311 308 302 298 295 293 288
221 231 232 242 244 260 263 271 296 296 221 189 193 214 195 180 155 136 106 96 103 111 106 38 282 271 300 308 302 293 293 295 297 300 304 308 311 312 313 305 298 297 296 293
230 240 229 230 243 250 258 275 281 266 208 267 204 239 203 188 145 125 111 106 115 126 164 307 264 281 290 295 291 290 292 295 299 306 309 313 317 315 314 303 300 299 297 296
229 234 235 234 248 240 240 244 228 337 303 220 204 236 206 189 161 138 120 103 92 76 41 333 317 309 307 306 302 301 306 303 311 314 314 317 318 314 310 300 296 298 299 299
218 223 230 238 235 233 217 216 213 208 200 241 210 231 193 190 186 170 157 126 83 78 68 44 23 4 347 336 331 329 325 321 315 313 314 314 314 314 308 300 294 296 294 294
220 227 237 220 217 213 213 215 218 233 243 291 220 238 204 198 192 182 175 165 103 73 44 32 23 14 6 356 347 339 332 324 316 315 314 315 314 311 308 304 300 293 291 291
229 236 227 212 215 212 213 202 194 207 170 244 249 246 211 199 187 182 183 199 220 265 1 6 14 13 8 3 355 344 332 325 319 318 318 317 315 314 312 307 301 297 295 297
220 228 225 215 223 222 218 217 209 206 218 175 240 246 195 186 185 192 204 227 262 284 307 326 342 347 348 351 352 350 345 333 326 323 322 321 321 318 315 310 305 301 299 296
210 232 238 237 232 230 229 228 223 218 211 211 219 257 196 197 192 206 226 247 269 287 297 302 313 323 330 338 342 345 349 345 336 328 328 327 325 322 316 310 306 301 298 297
211 217 199 231 240 234 232 228 225 223 229 223 177 231 207 207 202 226 246 261 270 274 283 294 296 306 320 328 337 339 343 341 338 331 325 322 320 320 316 310 305 300 296 295
212 219 215 216 245 229 227 231 226 223 229 229 229 228 219 211 224 257 260 269 276 269 270 284 286 291 306 316 327 332 335 336 335 333 328 317 313 313 312 309 303 297 293 292
212 229 236 239 253 258 253 248 235 229 233 232 251 249 242 253 252 259 263 267 276 268 262 277 280 279 294 305 319 325 327 327 329 330 326 322 313 309 307 304 302 297 291 289
219 229 239 247 247 254 258 253 245 237 241 245 250 257 256 253 256 258 266 268 261 255 253 276 276 277 288 301 315 319 323 324 324 326 327 324 323 315 314 315 312 303 295 291
229 230 240 254 258 256 257 245 243 246 246 243 244 267 278 273 275 269 258 257 258 252 254 277 279 283 288 296 309 315 319 321 321 324 328 325 322 318 317 316 315 308 297 292
238 236 237 245 253 241 252 255 253 250 256 257 260 264 267 270 265 251 252 257 261 260 259 272 278 285 288 296 305 311 315 318 319 322 322 323 320 318 316 315 313 307 301 298
233 234 227 224 236 254 245 239 251 255 261 259 261 264 262 256 251 251 258 258 255 252 256 265 281 289 292 297 304 312 317 317 317 317 319 319 319 317 315 314 310 308 305 302
231 228 228 219 221 222 267 254 248 256 262 248 251 257 261 259 258 266 252 251 256 257 260 268 286 292 296 297 303 310 315 314 314 315 317 316 315 315 314 311 309 306 303 302
217 222 223 226 233 248 240 221 215 229 265 272 272 266 257 254 259 250 254 251 252 258 254 268 285 293 297 298 302 309 310 310 311 315 317 314 314 313 311 308 308 308 309 309
220 214 220 225 233 246 236 235 235 260 275 283 271 273 265 250 240 240 244 254 257 258 263 272 280 287 295 298 301 304 308 310 315 316 315 313 311 309 307 308 309 309 309 309
226 227 223 225 234 244 250 262 269 268 258 266 263 259 250 242 243 244 266 268 257 259 267 273 281 290 295 296 298 304 310 313 313 311 309 309 308 306 308 309 309 309 310 309
232 233 233 239 245 247 251 256 258 262 253 255 251 248 256 246 254 263 272 267 265 265 271 279 288 292 294 294 301 307 310 310 308 307 309 308 309 311 310 309 310 310 311 311
235 236 239 242 244 246 248 254 259 263 257 258 257 266 258 248 253 266 272 274 268 274 279 283 288 291 296 299 303 304 308 307 305 307 308 310 309 308 308 308 311 312 313 313
235 235 235 245 253 257 262 266 266 265 262 265 262 262 259 251 255 266 270 273 277 281 285 285 287 293 297 299 301 304 305 305 305 307 307 306 306 307 310 312 314 314 312 313